Preview of NWS' New Version of Forecast
This preview is not operational and should not be used for support decisions.

Regional Weather Roundup (RWR)

Issued by Boston / Norton, MA (BOX)

                            
000
ASUS41 KBOX 200910
RWRBOX

REGIONAL WEATHER ROUNDUP
NATIONAL WEATHER SERVICE BOSTON/NORTON MA
400 AM EST WED FEB 20 2019

NOTE:  "FAIR" INDICATES FEW OR NO CLOUDS BELOW 12,000 FEET WITH NO 
SIGNIFICANT WEATHER AND/OR OBSTRUCTIONS TO VISIBILITY.

MAZALL-201000-
EASTERN MASSACHUSETTS
  
CITY           SKY/WX    TMP DP  RH WIND       PRES   REMARKS
BOSTON         MOCLDY    21   3  45 NW8       30.57F WCI  11          
BEVERLY        FAIR      16   0  49 NW6       30.55F WCI   7          
LAWRENCE       FAIR      16   1  51 W5        30.57F WCI   9          
BEDFORD        FAIR      10   0  63 CALM      30.56F                  
BLUE HILL        N/A     13   5  70 NW9       30.50F WCI   1          
NORWOOD        FAIR      13   5  70 CALM      30.57F                  
MARSHFIELD     FAIR      16   9  73 W3        30.56F                  
PLYMOUTH       FAIR      16   5  62 NW3       30.55F                  
TAUNTON        FAIR      13   8  81 CALM      30.57F                  
NEW BEDFORD    FAIR      19   7  59 CALM      30.58R                  
$$

MAZALL-201000-
CAPE COD AND THE ISLANDS
  
CITY           SKY/WX    TMP DP  RH WIND       PRES   REMARKS
FALMOUTH       FAIR      18   5  57 NW6       30.55F WCI   9          
HYANNIS        FAIR      23   8  52 NW7       30.53F WCI  15          
CHATHAM        FAIR      24   7  48 VRB5      30.54F WCI  18          
PROVINCETOWN   FAIR      23   9  55 N18       30.55F WCI   9          
NANTUCKET      FAIR      24   8  50 NW14      30.55S WCI  12          
MARTHAS VNYRD  FAIR      22   7  52 NW10      30.57R WCI  11          
$$
 
MAZALL-201000-
CENTRAL AND WESTERN MASSACHUSETTS
  
CITY           SKY/WX    TMP DP  RH WIND       PRES   REMARKS
WORCESTER      FAIR      15   1  53 NW12      30.48F WCI   2          
FITCHBURG      FAIR       9   1  70 CALM      30.55F                  
ORANGE         FAIR       5  -1  76 CALM      30.54F                  
SPRINGFIELD    FAIR       5   0  81 CALM      30.56S                  
WESTFIELD      FAIR       9   3  77 CALM      30.57S                  
NORTH ADAMS    FAIR       8   6  92 CALM      30.54F                  
PITTSFIELD     FAIR      13   6  74 W9        30.48S WCI   1          
$$
 
RIZALL-201000-
RHODE ISLAND
  
CITY           SKY/WX    TMP DP  RH WIND       PRES   REMARKS
PROVIDENCE     FAIR      19   6  57 W6        30.59S WCI  11          
NEWPORT        FAIR      20   6  55 N6        30.57S WCI  12          
BLOCK ISLAND   FAIR      21   8  57 NW3       30.61                   
SMITHFIELD     FAIR      13   4  67 NW3       30.54F                  
WESTERLY       FAIR      23   7  50 W3        30.61R                  
$$
 
CTZALL-201000-
CONNECTICUT
  
CITY           SKY/WX    TMP DP  RH WIND       PRES   REMARKS
BRADLEY INTL   CLOUDY    17   7  64 CALM      30.58S                  
HARTFORD       FAIR      20   8  60 S5        30.61R WCI  13          
BRIDGEPORT     FAIR      24   8  50 N3        30.62R                  
DANBURY        FAIR      19   9  65 W3        30.60R                  
GROTON         FAIR      21   4  47 NW3       30.61R                  
NEW HAVEN      FAIR      24   9  52 N3        30.61R                  
CHESTER        FAIR      19   9  63 CALM      30.58R                  
MERIDEN        FAIR      21   9  59 CALM      30.61R                  
WILLIMANTIC    FAIR      15   6  67 NE3       30.58F                  
OXFORD         FAIR      17   8  67 CALM      30.56R                  
$$

MEZ002-015-021-024-NHZ003-005-008-011-012-014-VTZ005-008-201000-
NORTHERN NEW ENGLAND
  
CITY           SKY/WX    TMP DP  RH WIND       PRES   REMARKS
PORTLAND ME    FAIR       3  -4  72 S5        30.53F WCI  -6          
BANGOR ME      FAIR       1  -8  66 CALM      30.51S                  
CONCORD NH     FAIR       2  -4  76 CALM      30.53F                  
MANCHESTER NH  FAIR      11   1  64 CALM      30.54S                  
NASHUA NH      FAIR       8   3  80 NW5       30.56F WCI   0          
PORTSMOUTH NH  PTCLDY    14  -2  47 W5        30.52F WCI   7          
JAFFREY NH     FAIR       8   3  80 S6        30.48F WCI  -2          
KEENE NH       FAIR       2  -1  88 CALM      30.55F                  
BURLINGTON VT  FAIR       1  -6  72 CALM      30.56S                  
MT. WASHINGTON FOG       -8  -8 100 NW72        N/A  VSB 1/16WCI -46  
$$

NYZ052-076-201000-
EASTERN NEW YORK
  
CITY           SKY/WX    TMP DP  RH WIND       PRES   REMARKS
ALBANY         MOCLDY    10   2  69 CALM      30.59F                  
NEW YORK CITY  CLOUDY    28   7  41 NE3       30.61S                  
$$
 
ANZALL-201000-
MARINE OBSERVATIONS
  
STATION/POSITION TIME  TEMP    WIND        PRES    VSBY  WAVE
                       AIR SEA DIR/SP/G                  HT/PER
                 (UTC) (F)     (DEG/KT/KT) (MB)    (MI)  (FT/S)
BOSTON BUOY      0850   24 39  310/ 17/ 21 1034.2F         3/ 4
BUZZARDS BAY     0800   24     350/ 16/ 17 1035.5F
NANTUCKET SOUND  0850   24 34  330/ 16/ 19 1034.8S         2/ 3
MASS BAY-STELLWA 0804   23 38  310/ 17/ 23 1034.2R  1 7/8  2/ 3
ISLE OF SHOALS   0800   20     290/ 17/ 20 1033.8F
S OF BLOCK IS    0830      42                N/A           3/ 4
$$

......................KEY.........................
  SKY/WX - SKY CONDITION/PRESENT WEATHER
  TMP    - TEMPERATURE IN FAHRENHEIT
  DWPT   - DEWPOINT IN FAHRENHEIT
  RH     - RELATIVE HUMIDITY IN PERCENT
  WIND   - DIRECTION AND SPEED IN MPH
  PRES   - MEAN SEA LEVEL PRESSURE IN INCHES OF HG
  WCI    - WIND CHILL INDEX
  VSB    - VISIBILITY IN MILES
  HX     - HEAT INDEX
  TC     - TEMPERATURE IN CELSIUS
  VRB    - VARIABLE WIND DIRECTION
  N/A    - NOT AVAILABLE